Regional Weather Roundup
Issued by NWS Green Bay, WI

Home | Current Version | Previous Version | Graphics & Text | Print | Product List | Glossary Off
Versions: 1 2 3 4 5 6 7 8 9 10 11 12 13 14 15 16 17 18 19 20 21 22 23 24 25 26 27 28 29 30 31 32 33 34 35 36 37 38 39 40 41 42 43 44 45 46 47 48 49 50

000
ASUS43 KGRB 270811
RWRGRB

NORTH-CENTRAL AND NORTHEAST WISCONSIN REGIONAL WEATHER ROUNDUP
NATIONAL WEATHER SERVICE GREEN BAY WI
300 AM CDT WED JUL 27 2016

WIZ005-009-010>012-018-019-270900-
NORTH CENTRAL WISCONSIN

CITY           SKY/WX    TMP DP  RH WIND       PRES   REMARKS
IRONWOOD       CLOUDY    70  70 100 SE3       29.95S
MANITOWISH WTR CLOUDY    66  66 100 SW7       30.01R
ARBOR VITAE    CLOUDY    63  61  93 N5        30.00R
EAGLE RIVER    LGT RAIN  62  61  98 CALM      30.00F
LAND O LAKES   CLOUDY    64  60  86 CALM      30.01F
RHINELANDER    CLOUDY    64  60  87 W7        29.99F
PHILLIPS       CLOUDY    65  65 100 CALM      29.99F
ANTIGO         PTCLDY    64  60  87 CALM      30.01F
TOMAHAWK       MOCLDY    62  60  95 CALM      30.01S
MERRILL        CLEAR     64  62  95 CALM      30.00F
$$

WIZ013-073-270900-
NORTHEAST WISCONSIN

CITY           SKY/WX    TMP DP  RH WIND       PRES   REMARKS
IRON MOUNTAIN  CLOUDY    68  61  78 NW12      29.99R
MARINETTE      PTCLDY   N/A N/A N/A N7        29.97R
OCONTO         PTCLDY   N/A N/A N/A CALM      29.95R
$$

WIZ017-030-035>037-045-270900-
CENTRAL WISCONSIN

CITY           SKY/WX    TMP DP  RH WIND       PRES   REMARKS
MEDFORD        PTCLDY    63  63 100 CALM      30.00F
WAUSAU         PTCLDY    71  64  78 NW3       29.98F
MOSINEE        CLEAR     68  68 100 NW3       30.00F
MARSHFIELD     CLEAR     69  66  90 W3        29.99F
WISC RAPIDS    CLEAR     69  65  86 SW3       30.00F
STEVENS POINT  CLEAR     72  66  83 W3        29.99F
WAUPACA        CLEAR     73  69  86 CALM      29.98S
SHAWANO        CLEAR     74  67  80 W5        29.98R
CLINTONVILLE   CLEAR     70  64  83 W3        29.98R
WAUTOMA        CLEAR     67  66  97 CALM      29.99F
$$

WIZ038-039-048-051-270900-
FOX VALLEY

CITY           SKY/WX    TMP DP  RH WIND       PRES   REMARKS
NWS GREEN BAY  CLEAR     73  70  90 SW3       29.96S
APPLETON       CLEAR     72  64  78 W6        29.97S
OSHKOSH        CLEAR     72  66  81 W3        29.98S
FOND DU LAC    CLEAR     70  65  84 SW3       29.98F
$$

WIZ022-050-052-270900-
EAST CENTRAL WISCONSIN

CITY           SKY/WX    TMP DP  RH WIND       PRES   REMARKS
EPHRAIM        FAIR      71  68  90 NW3       29.95R
WASHINGTON ISL NOT AVBL
STURGEON BAY   CLEAR     74  69  85 SW7       29.96S
MANITOWOC      CLEAR     75  66  73 W7        29.97S
SHEBOYGAN      CLEAR     71  64  78 NW7       29.97F
$$

LMZ563-521-522-541>543-270900-
LAKESHORE

STATION/POSITION TIME  TEMP    WIND        PRES    VSBY  WAVE
                       AIR SEA DIR/SP/G                  HT/PER
                 (UTC) (F)     (DEG/KT/KT) (MB)    (MI)  (FT/S)
SHEBOYGAN LKSHOR 0800   74     260/  6/  8 1014.7F
KEWAUNEE LKSHORE 0700   76     280/  5/  7 1013.8R
ALGOMA MARINA    0713          300/  6/ 10   N/A
NORTHPORT PIER   0700   75     280/  6/ 10 1013.5R
N MID LAKE BUOY  0750   71 69  300/  4/  6 1012.9R         2/ 5
S GREEN BAY BUOY 0700   72 74   20/  2/  2   N/A
SISTER BAY LKSHO 0721   74     270/  7/  7   N/A
CHAMBERS ISLAND  0700   72     230/  2/  4 1013.9R
MENOMINEE LKSHOR 0700   75     240/  5/  6 1013.0S
$$



USA.gov is the U.S. government's official web portal to all federal, state and local government web resources and services.